Weather History for KAHQ - October, 2012

Change the Weather History Date:

Wednesday, October 3, 2012

  Actual Average Record
Temperature  
Mean Temperature 60 °F -  
Max Temperature 82 °F 73 °F 88 °F (1963)
Min Temperature 37 °F 44 °F 28 °F (1987)
Degree Days  
Heating Degree Days 6    
Growing Degree Days 10 (Base 50)    
Moisture  
Dew Point 33 °F    
Average Humidity 42    
Maximum Humidity 74    
Minimum Humidity 14    
Precipitation  
Precipitation 0.00 in - - ()
Sea Level Pressure  
Sea Level Pressure 29.85 in    
Wind  
Wind Speed 7 mph (SSE)    
Max Wind Speed 26 mph    
Max Gust Speed 33 mph    
Visibility 10 miles    
Events      
Averages and records for this station are not official NWS values.
T = Trace of Precipitation, MM = Missing Value Source: NWS Daily Summary

Daily Weather History Graph

Daily Weather History Graph

Search for Another Location

Airport or City:

Trip Planner

Search our weather history database for the weather conditions in past years. The results will help you decide how hot, cold, wet, or windy it might be!

Date:

Astronomy

Oct. 03, 2012 Rise Set
Actual Time 7:25 AM CDT 7:04 PM CDT
Civil Twilight 6:58 AM CDT 7:31 PM CDT
Nautical Twilight 6:26 AM CDT 8:03 PM CDT
Astronomical Twilight 5:53 AM CDT 8:35 PM CDT
Moon 8:54 PM CDT (10/3) 10:52 AM CDT (10/3)
Length of Visible Light 12h 33m
Length of Day
11h 38m
Waning Gibbous, 88% of the Moon is Illuminated
Oct 3
Waning Gibbous
Oct 8
Last Quarter
Oct 15
New
Oct 21
First Quarter
Oct 29
Full

Hourly Weather History & Observations

Time (CDT) Temp. Windchill Dew Point Humidity Pressure Visibility Wind Dir Wind Speed Gust Speed Precip Events Conditions
12:15 AM 47.7 °F - 27.5 °F 46% 29.88 in 10.0 mi Calm Calm - N/A   Clear
12:35 AM 46.4 °F - 27.9 °F 48% 29.89 in 10.0 mi Calm Calm - N/A   Clear
12:55 AM 44.4 °F 42.9 °F 28.4 °F 53% 29.88 in 10.0 mi ESE 3.5 mph - N/A   Clear
1:15 AM 42.8 °F 41.1 °F 28.9 °F 58% 29.88 in 10.0 mi SE 3.5 mph - N/A   Clear
1:35 AM 43.0 °F - 28.2 °F 56% 29.88 in 10.0 mi Calm Calm - N/A   Clear
1:55 AM 44.1 °F - 28.4 °F 54% 29.89 in 10.0 mi Calm Calm - N/A   Clear
2:15 AM 44.2 °F - 28.9 °F 55% 29.89 in 10.0 mi Calm Calm - N/A   Clear
2:35 AM 43.7 °F - 28.6 °F 55% 29.88 in 10.0 mi Calm Calm - N/A   Clear
2:55 AM 43.7 °F - 28.4 °F 55% 29.88 in 10.0 mi Calm Calm - N/A   Clear
3:15 AM 43.0 °F - 28.4 °F 56% 29.88 in 10.0 mi Calm Calm - N/A   Clear
3:35 AM 42.8 °F - 28.4 °F 57% 29.88 in 10.0 mi Calm Calm - N/A   Clear
3:55 AM 43.7 °F - 28.4 °F 55% 29.88 in 10.0 mi Calm Calm - N/A   Clear
4:15 AM 41.7 °F - 28.4 °F 59% 29.88 in 10.0 mi Calm Calm - N/A   Clear
4:35 AM 38.7 °F 36.3 °F 28.8 °F 68% 29.89 in 10.0 mi SE 3.5 mph - N/A   Clear
4:55 AM 39.9 °F - 28.8 °F 64% 29.89 in 10.0 mi Calm Calm - N/A   Clear
5:15 AM 39.6 °F 37.4 °F 29.3 °F 67% 29.89 in 10.0 mi SSE 3.5 mph - N/A   Clear
5:35 AM 39.2 °F 35.9 °F 28.8 °F 66% 29.89 in 10.0 mi SE 4.6 mph - N/A   Clear
5:55 AM 38.3 °F 34.8 °F 28.8 °F 69% 29.89 in 10.0 mi SSE 4.6 mph - N/A   Clear
6:15 AM 38.8 °F 35.4 °F 28.9 °F 68% 29.89 in 10.0 mi SE 4.6 mph - N/A   Clear
6:35 AM 38.1 °F 35.7 °F 29.1 °F 70% 29.89 in 10.0 mi ESE 3.5 mph - N/A   Clear
6:55 AM 38.5 °F 35.0 °F 30.0 °F 72% 29.89 in 10.0 mi ESE 4.6 mph - N/A   Clear
7:15 AM 37.8 °F 35.3 °F 30.2 °F 74% 29.89 in 10.0 mi East 3.5 mph - N/A   Clear
7:35 AM 37.9 °F - 30.4 °F 74% 29.89 in 10.0 mi Calm Calm - N/A   Clear
7:55 AM 40.3 °F - 30.7 °F 69% 29.88 in 10.0 mi Calm Calm - N/A   Clear
8:15 AM 42.8 °F 40.1 °F 32.0 °F 66% 29.88 in 10.0 mi SE 4.6 mph - N/A   Clear
8:35 AM 45.5 °F 43.2 °F 34.0 °F 64% 29.88 in 10.0 mi SE 4.6 mph - N/A   Clear
8:55 AM 48.4 °F - 35.6 °F 61% 29.88 in 10.0 mi SE 4.6 mph - N/A   Clear
9:15 AM 52.5 °F - 35.8 °F 53% 29.87 in 10.0 mi SSE 5.8 mph - N/A   Clear
9:35 AM 55.6 °F - 36.1 °F 48% 29.88 in 10.0 mi South 6.9 mph - N/A   Clear
9:55 AM 58.6 °F - 36.9 °F 44% 29.87 in 10.0 mi South 6.9 mph - N/A   Clear
10:15 AM 62.8 °F - 35.8 °F 37% 29.87 in 10.0 mi South 10.4 mph - N/A   Clear
10:35 AM 65.1 °F - 35.6 °F 33% 29.87 in 10.0 mi SSE 10.4 mph - N/A   Clear
10:55 AM 67.6 °F - 35.6 °F 31% 29.86 in 10.0 mi South 11.5 mph - N/A   Clear
11:15 AM 71.8 °F - 34.9 °F 26% 29.85 in 10.0 mi South 15.0 mph 20.7 mph N/A   Clear
11:35 AM 73.6 °F - 34.2 °F 24% 29.85 in 10.0 mi South 17.3 mph 20.7 mph N/A   Clear
12:15 PM 76.1 °F - 33.3 °F 21% 29.84 in 10.0 mi SSW 16.1 mph 25.3 mph N/A   Clear
12:55 PM 78.3 °F - 32.0 °F 19% 29.82 in 10.0 mi South 19.6 mph 28.8 mph N/A   Clear
1:15 PM 79.2 °F - 30.9 °F 17% 29.82 in 10.0 mi South 21.9 mph 29.9 mph N/A   Clear
1:35 PM 80.6 °F - 30.7 °F 16% 29.81 in 10.0 mi South 23.0 mph 28.8 mph N/A   Clear
1:55 PM 80.4 °F - 29.7 °F 16% 29.79 in 10.0 mi South 19.6 mph 32.2 mph N/A   Clear
2:15 PM 81.1 °F - 30.0 °F 16% 29.78 in 10.0 mi South 20.7 mph 28.8 mph N/A   Clear
2:35 PM 81.0 °F - 29.7 °F 15% 29.78 in 10.0 mi South 20.7 mph 27.6 mph N/A   Clear
2:55 PM 81.5 °F - 29.3 °F 15% 29.77 in 10.0 mi South 20.7 mph 26.5 mph N/A   Clear
3:15 PM 81.7 °F - 29.7 °F 15% 29.77 in 10.0 mi South 21.9 mph 27.6 mph N/A   Clear
3:35 PM 82.8 °F - 29.1 °F 14% 29.77 in 10.0 mi South 20.7 mph 31.1 mph N/A   Clear
3:55 PM 81.9 °F - 28.8 °F 14% 29.76 in 10.0 mi South 20.7 mph 29.9 mph N/A   Clear
4:15 PM 82.2 °F - 30.9 °F 16% 29.76 in 10.0 mi South 23.0 mph 28.8 mph N/A   Clear
4:35 PM 81.7 °F - 31.8 °F 16% 29.76 in 10.0 mi SSE 26.5 mph 33.4 mph N/A   Clear
5:15 PM 81.3 °F - 32.0 °F 17% 29.76 in 10.0 mi South 19.6 mph 27.6 mph N/A   Clear
5:35 PM 80.6 °F - 32.2 °F 17% 29.77 in 10.0 mi South 21.9 mph 31.1 mph N/A   Clear
5:55 PM 79.3 °F - 33.4 °F 19% 29.77 in 10.0 mi South 19.6 mph 25.3 mph N/A   Clear
6:15 PM 77.9 °F - 35.2 °F 21% 29.78 in 10.0 mi South 18.4 mph - N/A   Clear
6:35 PM 76.1 °F - 35.8 °F 23% 29.79 in 10.0 mi South 15.0 mph - N/A   Clear
6:55 PM 74.7 °F - 36.7 °F 25% 29.79 in 10.0 mi South 13.8 mph - N/A   Clear
7:15 PM 73.2 °F - 37.0 °F 27% 29.80 in 10.0 mi SSE 10.4 mph - N/A   Clear
7:35 PM 71.1 °F - 37.2 °F 29% 29.80 in 10.0 mi SSE 12.7 mph - N/A   Clear
7:55 PM 71.1 °F - 37.6 °F 29% 29.80 in 10.0 mi SSE 12.7 mph - N/A   Clear
8:15 PM 69.6 °F - 38.1 °F 32% 29.81 in 10.0 mi SSE 12.7 mph - N/A   Clear
8:35 PM 68.9 °F - 37.9 °F 32% 29.81 in 10.0 mi SSE 13.8 mph - N/A   Clear
8:55 PM 68.2 °F - 38.7 °F 34% 29.82 in 10.0 mi South 11.5 mph - N/A   Clear
9:35 PM 65.1 °F - 40.1 °F 40% 29.85 in 10.0 mi South 5.8 mph - N/A   Clear
9:55 PM 62.6 °F - 40.1 °F 44% 29.85 in 10.0 mi South 6.9 mph - N/A   Clear
10:15 PM 60.8 °F - 40.6 °F 47% 29.87 in 10.0 mi South 5.8 mph - N/A   Clear
10:35 PM 64.0 °F - 42.6 °F 46% 29.90 in 10.0 mi WNW 6.9 mph 10.4 mph N/A   Clear
10:55 PM 64.4 °F - 43.7 °F 47% 29.91 in 10.0 mi West 6.9 mph - N/A   Clear
11:15 PM 63.7 °F - 42.6 °F 46% 29.92 in 10.0 mi NW 21.9 mph 27.6 mph N/A   Clear
11:35 PM 63.0 °F - 40.5 °F 44% 29.93 in 10.0 mi NW 19.6 mph 32.2 mph N/A   Clear
11:55 PM 61.0 °F - 40.6 °F 47% 29.95 in 10.0 mi NW 16.1 mph 24.2 mph N/A   Clear